IW0UWF-4 Weather Reports


time (UTC)temp
C
wind
direction
speed
KPH
gust
KPH
rain 1hr
cm
rain 24hr
cm
rain mn
cm
humidity
%
barometer
mb
20260504060203 13 0 0.0 0.0 0.00 0.15 0.15 62 1008.4
20260504050703 12 0 0.0 0.0 0.00 0.15 0.15 58 1008.2
20260504050603 12 0 0.0 0.0 0.00 0.15 0.15 58 1008.3
20260504050503 12 0 0.0 0.0 0.00 0.15 0.15 57 1008.2
20260504050403 12 0 0.0 0.0 0.00 0.15 0.15 57 1008.4
20260504050303 12 0 0.0 0.0 0.00 0.15 0.15 57 1008.3
20260504050204 12 0 0.0 0.0 0.00 0.15 0.15 57 1008.2
20260504050104 12 0 0.0 0.0 0.00 0.15 0.15 57 1008.4
20260504050004 12 0 0.0 0.0 0.00 0.15 0.15 57 1008.3
20260504045904 12 0 0.0 0.0 0.00 0.15 0.15 58 1008.3
20260504045804 12 0 0.0 0.0 0.00 0.15 0.15 58 1008.2
20260504045704 12 0 0.0 0.0 0.00 0.15 0.15 61 1008.2
20260504045604 12 0 0.0 0.0 0.00 0.15 0.15 62 1008.3
20260504045504 12 0 0.0 0.0 0.00 0.15 0.15 62 1008.3
20260504045403 12 0 0.0 0.0 0.00 0.15 0.15 62 1008.2
20260504045304 12 0 0.0 0.0 0.00 0.15 0.15 62 1008.2
20260504045203 12 38 0.0 3.2 0.00 0.15 0.15 62 1008.3
20260504045103 12 29 0.0 3.2 0.00 0.15 0.15 62 1008.2
20260504045004 12 29 0.0 3.2 0.00 0.15 0.15 62 1008.2
20260504044903 12 29 0.0 3.2 0.00 0.15 0.15 62 1008.2
20260504044803 12 29 0.0 3.2 0.00 0.15 0.15 62 1008.2
20260504044703 12 29 0.0 3.2 0.00 0.15 0.15 62 1008.1
20260504044603 12 29 0.0 3.2 0.00 0.15 0.15 62 1008.3
20260504044503 12 29 0.0 3.2 0.00 0.15 0.15 62 1008.2
20260504044403 12 29 0.0 3.2 0.00 0.15 0.15 61 1008.2
20260504044304 12 29 0.0 3.2 0.00 0.15 0.15 58 1008.2
20260504044204 12 22 0.0 3.2 0.00 0.15 0.15 58 1008.3
20260504044104 12 0 0.0 0.0 0.00 0.15 0.15 57 1008.3
20260504044004 12 0 0.0 0.0 0.00 0.15 0.15 57 1008.2
20260504043904 12 0 0.0 0.0 0.00 0.15 0.15 56 1008.1
20260504043804 12 0 0.0 0.0 0.00 0.15 0.15 56 1008.3
20260504043704 12 0 0.0 0.0 0.00 0.15 0.15 56 1008.3
20260504043603 12 0 0.0 0.0 0.00 0.15 0.15 56 1008.3
20260504043503 12 0 0.0 0.0 0.00 0.15 0.15 55 1008.2
20260504043403 12 0 0.0 0.0 0.00 0.15 0.15 55 1008.1
20260504043303 12 0 0.0 0.0 0.00 0.15 0.15 55 1008.3
20260504043203 12 0 0.0 0.0 0.00 0.15 0.15 55 1008.1
20260504043103 12 0 0.0 0.0 0.00 0.15 0.15 55 1008.3
20260504043003 12 0 0.0 0.0 0.00 0.15 0.15 55 1008.2
20260504042903 12 0 0.0 0.0 0.00 0.15 0.15 55 1008.2
20260504042803 12 0 0.0 0.0 0.00 0.15 0.15 55 1008.3
20260504042704 12 0 0.0 0.0 0.00 0.15 0.15 55 1008.3
20260504042603 12 0 0.0 0.0 0.00 0.15 0.15 55 1008.3
20260504042503 12 0 0.0 0.0 0.00 0.15 0.15 56 1008.3
20260504042403 12 0 0.0 0.0 0.00 0.15 0.15 56 1008.5
20260504042304 12 0 0.0 0.0 0.00 0.15 0.15 56 1008.3
20260504042204 12 0 0.0 0.0 0.00 0.15 0.15 57 1008.3
20260504042104 12 0 0.0 0.0 0.00 0.15 0.15 57 1008.2
20260504041703 12 0 0.0 0.0 0.00 0.15 0.15 61 1008.3
20260504041604 12 0 0.0 0.0 0.00 0.15 0.15 61 1008.1
20260504041505 12 0 0.0 0.0 0.00 0.15 0.15 61 1008.2
20260504041404 12 0 0.0 0.0 0.00 0.15 0.15 62 1008.1
20260504041304 12 0 0.0 0.0 0.00 0.15 0.15 62 1008.2
20260504041204 12 0 0.0 0.0 0.00 0.15 0.15 62 1008.3
20260504041104 12 0 0.0 0.0 0.00 0.15 0.15 62 1008.3
20260504041004 12 0 0.0 0.0 0.00 0.15 0.15 60 1008.2
20260504040904 12 0 0.0 0.0 0.00 0.15 0.15 60 1008.2
20260504040804 12 0 0.0 0.0 0.00 0.15 0.15 59 1008.2
20260504040703 12 0 0.0 0.0 0.00 0.15 0.15 59 1008.3
20260504040603 12 0 0.0 0.0 0.00 0.15 0.15 59 1008.2
20260504040503 12 0 0.0 0.0 0.00 0.15 0.15 59 1008.2
20260504040403 12 0 0.0 0.0 0.00 0.15 0.15 59 1008.3
20260504040303 12 0 0.0 0.0 0.00 0.15 0.15 59 1008.3
20260504040203 12 0 0.0 0.0 0.00 0.15 0.15 62 1008.2
20260504040103 12 0 0.0 0.0 0.00 0.15 0.15 62 1008.4
20260504040003 12 0 0.0 0.0 0.00 0.15 0.15 62 1008.2
20260504035903 12 0 0.0 0.0 0.00 0.15 0.15 62 1008.2
20260504035803 12 0 0.0 0.0 0.00 0.15 0.15 62 1008.2
20260504035703 12 0 0.0 0.0 0.00 0.15 0.15 62 1008.2
20260504035604 12 0 0.0 0.0 0.00 0.15 0.15 62 1008.3
20260504035504 12 0 0.0 0.0 0.00 0.15 0.15 62 1008.2
20260504035404 12 0 0.0 0.0 0.00 0.15 0.15 63 1008.2
20260504035305 12 0 0.0 0.0 0.00 0.15 0.15 63 1008.2
20260504035204 12 0 0.0 0.0 0.00 0.15 0.15 62 1008.4
20260504035104 12 0 0.0 0.0 0.00 0.15 0.15 62 1008.2
20260504035004 12 0 0.0 0.0 0.00 0.15 0.15 62 1008.1
20260504034904 12 0 0.0 0.0 0.00 0.15 0.15 59 1008.1
20260504034803 12 0 0.0 0.0 0.00 0.15 0.15 59 1008.2
20260504034704 12 0 0.0 0.0 0.00 0.15 0.15 58 1008.1
20260504034603 12 0 0.0 0.0 0.00 0.15 0.15 57 1008.2
20260504034503 12 0 0.0 0.0 0.00 0.15 0.15 57 1008.1
20260504034403 12 0 0.0 0.0 0.00 0.15 0.15 56 1008.1
20260504034303 12 0 0.0 0.0 0.00 0.15 0.15 56 1008.0
20260504034203 12 0 0.0 0.0 0.00 0.15 0.15 55 1008.2
20260504034103 12 0 0.0 0.0 0.00 0.15 0.15 55 1008.1
20260504034003 12 0 0.0 0.0 0.00 0.15 0.15 55 1008.0
20260504033903 12 0 0.0 0.0 0.00 0.15 0.15 54 1008.1
20260504033803 12 0 0.0 0.0 0.00 0.15 0.15 54 1008.0
20260504033704 12 0 0.0 0.0 0.00 0.15 0.15 54 1008.2
20260504033604 12 0 0.0 0.0 0.00 0.15 0.15 54 1008.1
20260504033504 12 0 0.0 0.0 0.00 0.15 0.15 54 1008.0
20260504033404 12 0 0.0 0.0 0.00 0.15 0.15 54 1008.1
20260504033304 12 0 0.0 0.0 0.00 0.15 0.15 54 1008.0
20260504033204 12 293 0.0 4.8 0.00 0.15 0.15 54 1008.0
20260504033104 12 240 1.6 4.8 0.00 0.15 0.15 54 1008.1
20260504033004 12 290 1.6 6.4 0.00 0.15 0.15 54 1008.1
20260504032904 12 290 1.6 6.4 0.00 0.15 0.15 54 1008.1
20260504032804 12 290 1.6 6.4 0.00 0.15 0.15 54 1008.1
20260504032703 12 290 1.6 6.4 0.00 0.15 0.15 54 1008.1
20260504032603 12 289 3.2 6.4 0.00 0.15 0.15 54 1008.0
20260504032503 12 289 3.2 6.4 0.00 0.15 0.15 54 1007.9
20260504032403 12 288 3.2 6.4 0.00 0.15 0.15 54 1007.9
20260504032304 12 288 4.8 6.4 0.00 0.15 0.15 54 1008.2
20260504032203 12 286 4.8 6.4 0.00 0.15 0.15 54 1008.1
20260504032103 12 299 4.8 6.4 0.00 0.15 0.15 54 1008.1
20260504031704 12 285 4.8 6.4 0.00 0.15 0.15 56 1008.3
20260504031604 12 287 4.8 6.4 0.00 0.15 0.15 56 1008.2
20260504031505 12 289 4.8 6.4 0.00 0.15 0.15 57 1008.3
20260504031404 12 282 4.8 6.4 0.00 0.15 0.15 58 1008.1
20260504031304 12 284 4.8 6.4 0.00 0.15 0.15 58 1008.2
20260504031204 12 276 4.8 6.4 0.00 0.15 0.15 59 1008.2
20260504031104 12 287 4.8 6.4 0.00 0.15 0.15 60 1008.2
20260504031004 12 287 4.8 6.4 0.00 0.15 0.15 60 1008.2
20260504030904 12 289 4.8 6.4 0.00 0.15 0.15 60 1008.2
20260504030804 12 290 4.8 6.4 0.00 0.15 0.15 61 1008.3
20260504030704 12 285 4.8 6.4 0.00 0.15 0.15 61 1008.2
20260504030604 12 280 4.8 6.4 0.00 0.15 0.15 65 1008.2
20260504030504 12 279 4.8 6.4 0.00 0.15 0.15 65 1008.2
20260504030403 12 283 4.8 6.4 0.00 0.15 0.15 66 1008.1
20260504030304 12 283 4.8 6.4 0.00 0.15 0.15 67 1008.1
20260504030203 12 284 3.2 6.4 0.00 0.15 0.15 68 1008.3
20260504030003 12 267 3.2 6.4 0.00 0.15 0.15 70 1008.3
20260504025903 12 270 3.2 4.8 0.00 0.15 0.15 70 1008.2
20260504025803 12 270 3.2 4.8 0.00 0.15 0.15 70 1008.3
20260504025703 12 270 3.2 3.2 0.00 0.15 0.15 70 1008.2
20260504025603 12 266 3.2 4.8 0.00 0.15 0.15 70 1008.3
20260504025518 12 265 3.2 4.8 0.00 0.15 0.15 70 1008.2
20260504025510 12 264 3.2 4.8 0.00 0.15 0.15 70 1008.2
20260504025204 12 253 3.2 4.8 0.00 0.15 0.15 71 1008.3
20260504025104 12 250 3.2 6.4 0.00 0.15 0.15 71 1008.3
20260504025004 12 257 4.8 6.4 0.00 0.15 0.15 71 1008.2
20260504024904 12 256 4.8 6.4 0.00 0.15 0.15 72 1008.2
20260504024804 12 256 4.8 6.4 0.00 0.15 0.15 72 1008.2
20260504024704 12 259 4.8 6.4 0.00 0.15 0.15 72 1008.3
20260504024604 12 265 4.8 6.4 0.00 0.15 0.15 72 1008.2
20260504024504 12 267 4.8 6.4 0.00 0.15 0.15 72 1008.3
20260504024403 12 268 4.8 6.4 0.00 0.15 0.15 72 1008.2
20260504024303 12 274 4.8 6.4 0.00 0.15 0.15 72 1008.3
20260504024203 11 279 4.8 6.4 0.00 0.15 0.15 73 1008.1
20260504024104 11 284 4.8 6.4 0.00 0.15 0.15 73 1008.3
20260504024004 11 288 4.8 6.4 0.00 0.15 0.15 73 1008.2
20260504023903 11 282 4.8 6.4 0.00 0.15 0.15 73 1008.1
20260504023803 11 282 4.8 6.4 0.00 0.15 0.15 73 1008.1
20260504023703 11 285 4.8 6.4 0.00 0.15 0.15 73 1008.2
20260504023603 11 284 6.4 6.4 0.00 0.15 0.15 74 1008.3
20260504023503 11 290 6.4 6.4 0.00 0.15 0.15 74 1008.2
20260504023403 11 294 6.4 6.4 0.00 0.15 0.15 74 1008.2
20260504023303 11 293 6.4 6.4 0.00 0.15 0.15 74 1008.2
20260504023203 11 295 4.8 6.4 0.00 0.15 0.15 74 1008.3
20260504023103 11 290 4.8 6.4 0.00 0.15 0.15 75 1008.2
20260504023004 11 287 4.8 6.4 0.00 0.15 0.15 75 1008.2
20260504022904 11 293 4.8 6.4 0.00 0.15 0.15 75 1008.3
20260504022804 11 296 4.8 6.4 0.00 0.15 0.15 75 1008.2
20260504022704 11 292 4.8 6.4 0.00 0.15 0.15 76 1008.2
20260504022604 11 295 4.8 6.4 0.00 0.15 0.15 76 1008.2
20260504022504 11 288 4.8 6.4 0.00 0.15 0.15 77 1008.2
20260504022404 11 280 3.2 8.0 0.00 0.15 0.15 77 1008.3
20260504022304 11 281 3.2 8.0 0.00 0.15 0.15 77 1008.2
20260504022203 11 282 4.8 8.0 0.00 0.15 0.15 78 1008.4
20260504022104 11 290 4.8 8.0 0.00 0.15 0.15 79 1008.3
20260504021703 11 291 6.4 8.0 0.00 0.15 0.15 80 1008.3
20260504021603 11 282 4.8 8.0 0.00 0.15 0.15 80 1008.4
20260504021503 11 282 4.8 8.0 0.00 0.15 0.15 81 1008.3
20260504021403 11 286 4.8 8.0 0.00 0.15 0.15 81 1008.2
20260504021303 11 297 4.8 6.4 0.00 0.15 0.15 81 1008.2
20260504021203 11 299 4.8 6.4 0.00 0.15 0.15 82 1008.4
20260504021103 11 304 4.8 6.4 0.00 0.15 0.15 82 1008.4
20260504021003 11 304 4.8 6.4 0.00 0.15 0.15 82 1008.1
20260504020903 11 301 4.8 6.4 0.00 0.15 0.15 83 1008.4
20260504020804 11 296 4.8 4.8 0.00 0.15 0.15 83 1008.3
20260504020704 11 302 4.8 4.8 0.00 0.15 0.15 83 1008.2
20260504020604 10 309 4.8 4.8 0.00 0.15 0.15 84 1008.3
20260504020504 10 309 4.8 4.8 0.00 0.15 0.15 84 1008.3
20260504020404 10 305 3.2 4.8 0.00 0.15 0.15 84 1008.2
20260504020304 10 303 3.2 4.8 0.00 0.15 0.15 84 1008.3
20260504020204 10 301 3.2 4.8 0.00 0.15 0.15 84 1008.3
20260504020104 10 298 3.2 4.8 0.00 0.15 0.15 84 1008.2
20260504020004 10 294 1.6 4.8 0.00 0.15 0.15 84 1008.2
20260504015909 10 298 1.6 4.8 0.00 0.15 0.15 84 1008.2
20260504015803 10 305 1.6 4.8 0.00 0.15 0.15 84 1008.3
20260504015703 10 300 1.6 4.8 0.00 0.15 0.15 84 1008.3
20260504015603 10 291 0.0 3.2 0.00 0.15 0.15 84 1008.3
20260504015503 10 288 0.0 3.2 0.00 0.15 0.15 84 1008.2
20260504015403 10 315 0.0 1.6 0.00 0.15 0.15 84 1008.3
20260504015304 10 315 0.0 1.6 0.00 0.15 0.15 84 1008.2
20260504015203 10 315 0.0 1.6 0.00 0.15 0.15 84 1008.4
20260504015103 10 315 0.0 1.6 0.00 0.15 0.15 84 1008.3
20260504015004 10 315 0.0 1.6 0.00 0.15 0.15 84 1008.3
20260504014904 10 0 0.0 0.0 0.00 0.15 0.15 84 1008.1
20260504014804 10 0 0.0 0.0 0.00 0.15 0.15 84 1008.2
20260504014704 10 0 0.0 0.0 0.00 0.15 0.15 84 1008.3
20260504014604 10 0 0.0 0.0 0.00 0.15 0.15 84 1008.3
20260504014503 10 0 0.0 0.0 0.00 0.15 0.15 84 1008.1
20260504014403 10 0 0.0 0.0 0.00 0.15 0.15 84 1008.3
20260504014303 10 0 0.0 0.0 0.00 0.15 0.15 84 1008.4
20260504014204 10 0 0.0 0.0 0.00 0.15 0.15 84 1008.4
20260504014103 10 0 0.0 0.0 0.03 0.15 0.15 84 1008.2
20260504014003 10 0 0.0 0.0 0.03 0.15 0.15 84 1008.3
20260504013903 10 0 0.0 0.0 0.03 0.15 0.15 84 1008.2
20260504013803 10 0 0.0 0.0 0.03 0.15 0.15 84 1008.3
20260504013703 10 0 0.0 0.0 0.03 0.15 0.15 84 1008.3
20260504013603 10 0 0.0 0.0 0.03 0.15 0.15 84 1008.1
20260504013503 10 0 0.0 0.0 0.03 0.15 0.15 84 1008.1
20260504013403 10 0 0.0 0.0 0.03 0.15 0.15 84 1008.2
20260504013303 10 0 0.0 0.0 0.03 0.15 0.15 84 1008.3
20260504013204 10 0 0.0 0.0 0.03 0.15 0.15 84 1008.0
20260504013104 10 0 0.0 0.0 0.03 0.15 0.15 84 1008.3
20260504013004 10 0 0.0 0.0 0.03 0.15 0.15 84 1008.3
20260504012904 10 0 0.0 0.0 0.03 0.15 0.15 84 1008.3
20260504012804 10 0 0.0 0.0 0.03 0.15 0.15 84 1008.2
20260504012704 10 0 0.0 0.0 0.03 0.15 0.15 84 1008.2
20260504012604 10 0 0.0 0.0 0.03 0.15 0.15 84 1008.1
20260504012504 10 0 0.0 0.0 0.03 0.15 0.15 84 1008.3
20260504012404 10 0 0.0 0.0 0.03 0.15 0.15 84 1008.1
20260504012304 10 0 0.0 0.0 0.03 0.15 0.15 84 1008.2
20260504012203 10 0 0.0 0.0 0.05 0.15 0.15 84 1008.2
20260504012104 10 0 0.0 0.0 0.05 0.15 0.15 84 1008.2
20260504011704 10 360 0.0 1.6 0.05 0.15 0.15 83 1008.4
20260504011604 10 360 0.0 3.2 0.05 0.15 0.15 83 1008.3
20260504011504 10 360 0.0 3.2 0.05 0.15 0.15 83 1008.5
20260504011404 10 360 0.0 3.2 0.05 0.15 0.15 83 1008.4
20260504011304 10 360 0.0 3.2 0.05 0.15 0.15 83 1008.4
20260504011204 10 360 0.0 3.2 0.05 0.15 0.15 83 1008.4
20260504011103 10 360 0.0 3.2 0.05 0.15 0.15 83 1008.5
20260504011003 10 360 0.0 3.2 0.10 0.15 0.15 83 1008.4
20260504010903 10 360 0.0 3.2 0.10 0.15 0.15 83 1008.4
20260504010803 10 360 0.0 3.2 0.10 0.15 0.15 82 1008.5
20260504010703 10 360 0.0 3.2 0.10 0.15 0.15 82 1008.5
20260504010603 10 0 0.0 0.0 0.10 0.15 0.15 82 1008.7
20260504010503 10 0 0.0 0.0 0.10 0.15 0.15 82 1008.6
20260504010403 10 0 0.0 0.0 0.13 0.15 0.15 82 1008.5
20260504010303 10 225 0.0 1.6 0.13 0.15 0.15 82 1008.6
20260504010203 10 225 0.0 1.6 0.13 0.15 0.15 82 1008.7
20260504010004 10 215 0.0 3.2 0.13 0.15 0.15 82 1008.7
20260504005904 10 215 0.0 3.2 0.13 0.15 0.15 82 1008.7
20260504005804 10 215 0.0 3.2 0.13 0.15 0.15 81 1008.7
20260504005708 10 215 0.0 3.2 0.13 0.15 0.15 81 1008.8
20260504005604 10 202 0.0 3.2 0.13 0.15 0.15 81 1008.8
20260504005504 10 204 0.0 3.2 0.13 0.15 0.15 81 1008.7
20260504005404 10 205 1.6 3.2 0.13 0.15 0.15 81 1008.9
20260504005305 10 203 1.6 3.2 0.13 0.15 0.15 81 1008.9
20260504005204 10 201 1.6 3.2 0.13 0.15 0.15 81 1008.9
20260504005104 10 195 0.0 3.2 0.13 0.15 0.15 81 1008.9
20260504005004 10 196 0.0 3.2 0.13 0.15 0.15 81 1008.9
20260504004904 10 196 0.0 3.2 0.13 0.15 0.15 81 1008.9
20260504004807 10 196 0.0 3.2 0.13 0.15 0.15 81 1008.9
20260504004704 10 196 0.0 3.2 0.13 0.15 0.15 81 1008.9
20260504004603 10 203 0.0 3.2 0.13 0.15 0.15 81 1008.9
20260504004503 10 195 0.0 3.2 0.13 0.15 0.15 81 1009.0
20260504004403 10 203 0.0 3.2 0.13 0.15 0.15 81 1008.9
20260504004303 10 200 0.0 3.2 0.13 0.15 0.15 81 1009.1
20260504004203 10 193 1.6 3.2 0.10 0.13 0.13 81 1008.9
20260504004103 10 189 1.6 3.2 0.10 0.13 0.13 81 1008.9
20260504004003 10 179 1.6 3.2 0.10 0.13 0.13 81 1008.9
20260504003903 10 179 1.6 3.2 0.10 0.13 0.13 81 1009.0
20260504003803 10 187 1.6 6.4 0.10 0.13 0.13 81 1009.1
20260504003704 10 188 3.2 6.4 0.10 0.13 0.13 81 1009.1
20260504003604 10 186 3.2 6.4 0.10 0.13 0.13 81 1009.2
20260504003504 10 193 3.2 6.4 0.10 0.13 0.13 81 1009.2
20260504003404 10 189 4.8 6.4 0.10 0.13 0.13 81 1009.2
20260504003304 10 190 4.8 6.4 0.13 0.13 0.13 81 1009.4
20260504003204 10 190 4.8 6.4 0.13 0.13 0.13 81 1009.2
20260504003104 10 187 4.8 6.4 0.13 0.13 0.13 81 1009.3
20260504003004 10 187 4.8 6.4 0.13 0.13 0.13 81 1009.3
20260504002904 10 186 4.8 6.4 0.13 0.13 0.13 81 1009.3
20260504002803 10 184 4.8 6.4 0.13 0.13 0.13 81 1009.3
20260504002703 10 182 4.8 6.4 0.13 0.13 0.13 81 1009.3
20260504002603 11 183 4.8 6.4 0.13 0.13 0.13 81 1009.4
20260504002503 11 173 4.8 6.4 0.13 0.13 0.13 81 1009.3
20260504002403 11 174 4.8 6.4 0.13 0.13 0.13 81 1009.3
20260504002304 11 170 4.8 6.4 0.10 0.10 0.10 81 1009.3
20260504002203 11 169 4.8 6.4 0.10 0.10 0.10 81 1009.3
20260504002103 11 177 4.8 6.4 0.10 0.10 0.10 82 1009.3
20260504001704 11 217 3.2 6.4 0.10 0.10 0.10 82 1009.2
20260504001604 11 228 3.2 6.4 0.10 0.10 0.10 82 1009.3
20260504001504 11 219 3.2 6.4 0.10 0.10 0.10 82 1009.3
20260504001404 11 224 3.2 6.4 0.10 0.10 0.10 82 1009.2
20260504001304 11 223 1.6 6.4 0.10 0.10 0.10 82 1009.2
20260504001203 11 222 1.6 6.4 0.10 0.10 0.10 82 1009.3
20260504001103 11 222 1.6 6.4 0.05 0.05 0.05 82 1009.2
20260504001003 12 222 1.6 6.4 0.05 0.05 0.05 82 1009.4
20260504000903 12 115 1.6 4.8 0.05 0.05 0.05 82 1009.3
20260504000803 12 139 0.0 4.8 0.05 0.05 0.05 82 1009.4
20260504000703 12 168 0.0 4.8 0.05 0.05 0.05 82 1009.1
20260504000603 12 180 0.0 3.2 0.05 0.05 0.05 82 1009.2
20260504000503 12 0 0.0 0.0 0.03 0.03 0.03 80 1009.2
20260504000404 12 0 0.0 0.0 0.03 0.03 0.03 80 1009.2
20260504000303 12 0 0.0 0.0 0.03 0.03 0.03 80 1009.1
20260504000204 12 0 0.0 0.0 0.03 0.03 0.03 80 1009.0
20260504000104 12 0 0.0 0.0 0.03 0.03 0.03 80 1009.3
20260504000004 12 0 0.0 0.0 0.03 0.03 0.03 80 1009.3
20260503235904 12 0 0.0 0.0 0.03 0.03 0.03 80 1009.3
20260503235804 12 0 0.0 0.0 0.03 0.03 0.03 79 1009.3
20260503235704 12 0 0.0 0.0 0.03 0.03 0.03 79 1009.2
20260503235604 12 0 0.0 0.0 0.03 0.03 0.03 79 1009.3
20260503235504 12 0 0.0 0.0 0.03 0.03 0.03 79 1009.3
20260503235404 12 0 0.0 0.0 0.03 0.03 0.03 79 1009.4
20260503235304 12 0 0.0 0.0 0.03 0.03 0.03 79 1009.3
20260503235204 12 0 0.0 0.0 0.03 0.03 0.03 79 1009.4
20260503235103 12 0 0.0 0.0 0.03 0.03 0.03 79 1009.3
20260503235003 12 0 0.0 0.0 0.03 0.03 0.03 78 1009.5
20260503234903 12 0 0.0 0.0 0.03 0.03 0.03 78 1009.5
20260503234805 12 0 0.0 0.0 0.03 0.03 0.03 78 1009.3
20260503234703 12 0 0.0 0.0 0.03 0.03 0.03 78 1009.5
20260503234603 12 0 0.0 0.0 0.03 0.03 0.03 78 1009.3
20260503234503 12 0 0.0 0.0 0.03 0.03 0.03 77 1009.4
20260503234403 12 0 0.0 0.0 0.03 0.03 0.03 77 1009.5
20260503234303 12 0 0.0 0.0 0.03 0.03 0.03 77 1009.4
20260503234203 12 0 0.0 0.0 0.03 0.03 0.03 77 1009.6
20260503234104 12 0 0.0 0.0 0.03 0.03 0.03 77 1009.4
20260503234004 12 0 0.0 0.0 0.03 0.03 0.03 76 1009.6
20260503233904 12 0 0.0 0.0 0.03 0.03 0.03 76 1009.6
20260503233804 13 0 0.0 0.0 0.03 0.03 0.03 76 1009.6
20260503233704 13 0 0.0 0.0 0.03 0.03 0.03 76 1009.6
20260503233604 13 0 0.0 0.0 0.03 0.03 0.03 76 1009.4
20260503233504 13 0 0.0 0.0 0.03 0.03 0.03 76 1009.6
20260503233404 13 0 0.0 0.0 0.00 0.00 0.00 76 1009.5
20260503233304 13 0 0.0 0.0 0.00 0.00 0.00 75 1009.6
20260503233204 13 0 0.0 0.0 0.00 0.00 0.00 75 1009.5
20260503233104 13 0 0.0 0.0 0.00 0.00 0.00 75 1009.5
20260503233003 13 0 0.0 0.0 0.00 0.00 0.00 75 1009.6
20260503232903 13 0 0.0 0.0 0.00 0.00 0.00 75 1009.6
20260503232803 13 0 0.0 0.0 0.00 0.00 0.00 75 1009.6
20260503232703 13 0 0.0 0.0 0.00 0.00 0.00 75 1009.5
20260503232603 13 0 0.0 0.0 0.00 0.00 0.00 75 1009.6
20260503232504 13 0 0.0 0.0 0.00 0.00 0.00 75 1009.7
20260503232403 13 0 0.0 0.0 0.00 0.00 0.00 74 1009.7
20260503232305 13 0 0.0 0.0 0.00 0.00 0.00 74 1009.8
20260503232203 13 0 0.0 0.0 0.00 0.00 0.00 74 1009.8
20260503232103 13 0 0.0 0.0 0.00 0.00 0.00 74 1009.6
20260503231704 13 0 0.0 0.0 0.00 0.00 0.00 74 1009.8
20260503231604 13 0 0.0 0.0 0.00 0.00 0.00 74 1009.8
20260503231504 13 0 0.0 0.0 0.00 0.00 0.00 74 1009.6
20260503231404 13 0 0.0 0.0 0.00 0.00 0.00 74 1009.6
20260503231004 13 0 0.0 0.0 0.00 0.00 0.00 73 1009.7
20260503230904 13 0 0.0 0.0 0.00 0.00 0.00 73 1009.7
20260503230804 13 0 0.0 0.0 0.00 0.00 0.00 73 1009.8
20260503230704 13 0 0.0 0.0 0.00 0.00 0.00 73 1009.8
20260503230604 13 0 0.0 0.0 0.00 0.00 0.00 73 1009.7
20260503230504 13 0 0.0 0.0 0.00 0.00 0.00 73 1009.7
20260503230404 13 0 0.0 0.0 0.00 0.00 0.00 73 1009.7
20260503230304 13 0 0.0 0.0 0.00 0.00 0.00 73 1009.6
20260503230203 13 0 0.0 0.0 0.00 0.00 0.00 73 1009.7
20260503230103 13 0 0.0 0.0 0.00 0.00 0.00 73 1009.7
20260503230003 13 0 0.0 0.0 0.00 0.00 0.00 73 1009.8
20260503225903 13 0 0.0 0.0 0.00 0.00 0.00 73 1009.7
20260503225803 13 0 0.0 0.0 0.00 0.00 0.00 73 1009.9
20260503225704 13 0 0.0 0.0 0.00 0.00 0.00 73 1009.8
20260503225603 13 0 0.0 0.0 0.00 0.00 0.00 73 1009.7
20260503225503 13 0 0.0 0.0 0.00 0.00 0.00 73 1009.9
20260503225403 13 0 0.0 0.0 0.00 0.00 0.00 72 1009.9
20260503225304 13 0 0.0 0.0 0.00 0.00 0.00 72 1009.9
20260503225205 13 0 0.0 0.0 0.00 0.00 0.00 72 1009.9
20260503225103 13 0 0.0 0.0 0.00 0.00 0.00 72 1009.9
20260503225004 13 0 0.0 0.0 0.00 0.00 0.00 72 1009.9
20260503224904 13 0 0.0 0.0 0.00 0.00 0.00 72 1009.9
20260503224804 13 0 0.0 0.0 0.00 0.00 0.00 72 1009.9
20260503224704 13 0 0.0 0.0 0.00 0.00 0.00 72 1009.9
20260503224604 13 0 0.0 0.0 0.00 0.00 0.00 72 1010.0
20260503224504 13 0 0.0 0.0 0.00 0.00 0.00 72 1009.9
20260503224403 13 0 0.0 0.0 0.00 0.00 0.00 72 1009.8
20260503224303 13 0 0.0 0.0 0.00 0.00 0.00 72 1009.8
20260503224204 13 0 0.0 0.0 0.00 0.00 0.00 72 1010.0
20260503224103 13 0 0.0 0.0 0.00 0.00 0.00 72 1009.9
20260503224003 13 0 0.0 0.0 0.00 0.00 0.00 72 1009.9
20260503223903 13 0 0.0 0.0 0.00 0.00 0.00 72 1010.0
20260503223803 13 0 0.0 0.0 0.00 0.00 0.00 72 1010.1
20260503223703 13 0 0.0 0.0 0.00 0.00 0.00 72 1010.0
20260503223603 13 0 0.0 0.0 0.00 0.00 0.00 72 1010.1
20260503223503 13 0 0.0 0.0 0.00 0.00 0.00 72 1009.9
20260503223403 13 0 0.0 0.0 0.00 0.00 0.00 72 1010.1
20260503223303 13 0 0.0 0.0 0.00 0.00 0.00 72 1010.1
20260503223204 13 0 0.0 0.0 0.00 0.00 0.00 72 1009.9
20260503223104 13 0 0.0 0.0 0.00 0.00 0.00 72 1009.9
20260503223004 13 0 0.0 0.0 0.00 0.00 0.00 72 1010.0
20260503222904 13 0 0.0 0.0 0.00 0.00 0.00 72 1010.0
20260503222804 13 0 0.0 0.0 0.00 0.00 0.00 72 1010.0
20260503222704 13 0 0.0 0.0 0.00 0.00 0.00 72 1009.9
20260503222604 13 0 0.0 0.0 0.00 0.00 0.00 72 1010.1
20260503222504 13 0 0.0 0.0 0.00 0.00 0.00 72 1010.1
20260503222403 13 0 0.0 0.0 0.00 0.00 0.00 72 1010.1
20260503222304 13 0 0.0 0.0 0.00 0.00 0.00 72 1010.0
20260503222203 13 0 0.0 0.0 0.00 0.00 0.00 72 1009.9
20260503222103 13 0 0.0 0.0 0.00 0.00 0.00 72 1010.0
20260503221704 13 0 0.0 0.0 0.00 0.00 0.00 72 1010.0
20260503221604 13 0 0.0 0.0 0.00 0.00 0.00 72 1010.2
20260503221504 13 0 0.0 0.0 0.00 0.00 0.00 72 1010.2
20260503221403 13 0 0.0 0.0 0.00 0.00 0.00 72 1010.1
20260503221303 13 0 0.0 0.0 0.00 0.00 0.00 72 1010.2
20260503221203 13 0 0.0 0.0 0.00 0.00 0.00 72 1010.1
20260503221103 13 0 0.0 0.0 0.00 0.00 0.00 72 1010.2
20260503221003 13 0 0.0 0.0 0.00 0.00 0.00 72 1010.1
20260503220903 13 0 0.0 0.0 0.00 0.00 0.00 72 1010.2
20260503220803 13 0 0.0 0.0 0.00 0.00 0.00 72 1010.0
20260503220703 13 0 0.0 0.0 0.00 0.00 0.00 72 1009.9
20260503220603 13 0 0.0 0.0 0.00 0.00 0.00 72 1010.0
20260503220503 13 0 0.0 0.0 0.00 0.00 0.00 72 1010.0
20260503220404 13 0 0.0 0.0 0.00 0.00 0.00 72 1010.0
20260503220304 13 0 0.0 0.0 0.00 0.00 0.00 72 1010.0
20260503220204 13 0 0.0 0.0 0.00 0.00 0.00 72 1010.1
20260503220104 13 0 0.0 0.0 0.00 0.00 0.00 72 1010.0
20260503220047 13 0 0.0 0.0 0.00 0.00 0.00 72 1010.0
20260503215904 13 0 0.0 0.0 0.00 0.00 0.00 72 1009.9
20260503215804 13 0 0.0 0.0 0.00 0.00 0.00 72 1009.9
20260503215704 13 0 0.0 0.0 0.00 0.00 0.00 71 1009.9
20260503215604 13 0 0.0 0.0 0.00 0.00 0.00 71 1009.9
20260503215503 13 0 0.0 0.0 0.00 0.00 0.00 71 1009.9
20260503215403 13 0 0.0 0.0 0.00 0.00 0.00 71 1009.9
20260503215304 13 0 0.0 0.0 0.00 0.00 0.00 71 1010.0
20260503215203 13 0 0.0 0.0 0.00 0.00 0.00 71 1009.9
20260503215103 13 0 0.0 0.0 0.00 0.00 0.00 71 1009.9
20260503215003 13 0 0.0 0.0 0.00 0.00 0.00 71 1009.9
20260503214903 13 0 0.0 0.0 0.00 0.00 0.00 71 1010.0
20260503214803 13 225 0.0 1.6 0.00 0.00 0.00 71 1009.9
20260503214703 13 247 0.0 1.6 0.00 0.00 0.00 71 1010.0
20260503214603 13 247 0.0 1.6 0.00 0.00 0.00 71 1009.9
20260503214503 13 247 0.0 1.6 0.00 0.00 0.00 71 1010.0
20260503214403 13 247 0.0 1.6 0.00 0.00 0.00 71 1010.0
20260503214303 13 247 0.0 1.6 0.00 0.00 0.00 71 1009.9
20260503214203 13 247 0.0 1.6 0.00 0.00 0.00 71 1009.9
20260503214104 13 247 0.0 1.6 0.00 0.00 0.00 71 1009.7
20260503214004 13 247 0.0 1.6 0.00 0.00 0.00 71 1009.9
20260503213904 13 247 0.0 1.6 0.00 0.00 0.00 71 1009.9
20260503213804 13 270 0.0 1.6 0.00 0.00 0.00 71 1009.9
20260503213704 13 0 0.0 0.0 0.00 0.00 0.00 71 1010.0
20260503213604 13 0 0.0 0.0 0.00 0.00 0.00 71 1009.9
20260503213504 13 0 0.0 0.0 0.00 0.00 0.00 71 1010.0
20260503213404 13 0 0.0 0.0 0.00 0.00 0.00 71 1009.9
20260503213304 13 0 0.0 0.0 0.00 0.00 0.00 71 1009.8
20260503213204 13 225 0.0 1.6 0.00 0.00 0.00 71 1009.9
20260503213104 13 225 0.0 1.6 0.00 0.00 0.00 71 1009.8
20260503213003 13 225 0.0 1.6 0.00 0.00 0.00 70 1009.8
20260503212903 13 225 0.0 1.6 0.00 0.00 0.00 70 1009.9
20260503212803 13 225 0.0 1.6 0.00 0.00 0.00 70 1009.8
20260503212703 13 225 0.0 1.6 0.00 0.00 0.00 70 1009.8
20260503212603 13 225 0.0 1.6 0.00 0.00 0.00 70 1009.8
20260503212503 13 225 0.0 1.6 0.00 0.00 0.00 70 1009.8
20260503212403 13 225 0.0 1.6 0.00 0.00 0.00 70 1009.8
20260503212305 13 225 0.0 1.6 0.00 0.00 0.00 70 1009.9
20260503212203 13 0 0.0 0.0 0.00 0.00 0.00 70 1010.0
20260503212103 13 0 0.0 0.0 0.00 0.00 0.00 70 1009.9
20260503211603 13 0 0.0 0.0 0.00 0.00 0.00 70 1010.0
20260503211303 13 0 0.0 0.0 0.00 0.00 0.00 70 1009.8
20260503211203 13 0 0.0 0.0 0.00 0.00 0.00 70 1009.9
20260503211103 13 0 0.0 0.0 0.00 0.00 0.00 70 1009.8
20260503211004 13 0 0.0 0.0 0.00 0.00 0.00 70 1009.8
20260503210904 13 0 0.0 0.0 0.00 0.00 0.00 70 1009.9
20260503210804 13 0 0.0 0.0 0.00 0.00 0.00 70 1009.8
20260503210704 13 0 0.0 0.0 0.00 0.00 0.00 70 1009.7
20260503210604 13 0 0.0 0.0 0.00 0.00 0.00 70 1009.8
20260503210504 13 0 0.0 0.0 0.00 0.00 0.00 70 1009.8
20260503210404 13 0 0.0 0.0 0.00 0.00 0.00 70 1009.8
20260503210304 13 0 0.0 0.0 0.00 0.00 0.00 70 1009.9
20260503210204 13 0 0.0 0.0 0.00 0.00 0.00 70 1009.8
20260503210103 13 0 0.0 0.0 0.00 0.00 0.00 70 1009.8
20260503210004 13 0 0.0 0.0 0.00 0.00 0.00 70 1009.8
20260503205904 13 0 0.0 0.0 0.00 0.00 0.00 70 1009.8
20260503205803 13 0 0.0 0.0 0.00 0.00 0.00 69 1009.9
20260503205703 13 0 0.0 0.0 0.00 0.00 0.00 69 1009.9
20260503205603 13 0 0.0 0.0 0.00 0.00 0.00 69 1010.0
20260503205503 13 0 0.0 0.0 0.00 0.00 0.00 69 1009.9
20260503205403 13 0 0.0 0.0 0.00 0.00 0.00 69 1010.0
20260503205304 13 0 0.0 0.0 0.00 0.00 0.00 69 1010.0
20260503205203 13 0 0.0 0.0 0.00 0.00 0.00 69 1009.9
20260503205104 13 135 0.0 1.6 0.00 0.00 0.00 68 1009.9
20260503205004 13 171 0.0 1.6 0.00 0.00 0.00 68 1009.9
20260503204904 13 187 0.0 1.6 0.00 0.00 0.00 68 1009.9
20260503204804 13 187 0.0 1.6 0.00 0.00 0.00 68 1010.0
20260503204704 13 187 0.0 1.6 0.00 0.00 0.00 68 1009.9
20260503204604 13 187 0.0 1.6 0.00 0.00 0.00 68 1009.9
20260503204504 13 187 0.0 1.6 0.00 0.00 0.00 68 1010.0
20260503204404 13 187 0.0 1.6 0.00 0.00 0.00 68 1010.0
20260503204304 13 187 0.0 1.6 0.00 0.00 0.00 68 1009.9
20260503204204 13 187 0.0 1.6 0.00 0.00 0.00 68 1009.9
20260503204104 13 222 0.0 1.6 0.00 0.00 0.00 68 1010.0
20260503204004 13 270 0.0 1.6 0.00 0.00 0.00 68 1009.8
20260503203904 14 0 0.0 0.0 0.00 0.00 0.00 68 1010.0
20260503203803 14 0 0.0 0.0 0.00 0.00 0.00 68 1009.9
20260503203704 14 0 0.0 0.0 0.00 0.00 0.00 68 1010.1
20260503203603 14 0 0.0 0.0 0.00 0.00 0.00 68 1010.1
20260503203503 14 0 0.0 0.0 0.00 0.00 0.00 68 1010.0
20260503203403 14 0 0.0 0.0 0.00 0.00 0.00 68 1010.0
20260503203303 14 0 0.0 0.0 0.00 0.00 0.00 67 1010.1
20260503203203 14 0 0.0 0.0 0.00 0.00 0.00 67 1010.0
20260503203105 14 0 0.0 0.0 0.00 0.00 0.00 67 1010.2
20260503203004 14 0 0.0 0.0 0.00 0.00 0.00 67 1010.0
20260503202904 14 0 0.0 0.0 0.00 0.00 0.00 67 1010.2
20260503202804 14 0 0.0 0.0 0.00 0.00 0.00 67 1010.1
20260503202704 14 0 0.0 0.0 0.00 0.00 0.00 67 1009.9
20260503202604 14 0 0.0 0.0 0.00 0.00 0.00 67 1010.1
20260503202504 14 306 0.0 1.6 0.00 0.00 0.00 67 1010.0
20260503202404 14 309 0.0 1.6 0.00 0.00 0.00 67 1010.1
20260503202304 14 309 0.0 1.6 0.00 0.00 0.00 67 1010.3
20260503202204 14 312 0.0 3.2 0.00 0.00 0.00 67 1010.0
20260503202104 14 312 0.0 3.2 0.00 0.00 0.00 67 1010.1
20260503201704 15 285 0.0 3.2 0.00 0.00 0.00 67 1010.0
20260503201604 15 285 0.0 3.2 0.00 0.00 0.00 67 1010.1
20260503201505 15 305 1.6 4.8 0.00 0.00 0.00 67 1010.1
20260503201404 15 312 1.6 4.8 0.00 0.00 0.00 68 1010.1
20260503201304 15 315 1.6 4.8 0.00 0.00 0.00 68 1010.1
20260503201203 15 315 3.2 4.8 0.00 0.00 0.00 68 1010.1
20260503201103 15 315 3.2 4.8 0.00 0.00 0.00 68 1010.1
20260503201004 15 315 3.2 4.8 0.00 0.00 0.00 68 1010.1
20260503200903 15 315 3.2 4.8 0.00 0.00 0.00 68 1010.1
20260503200803 15 315 4.8 4.8 0.00 0.00 0.00 69 1010.1
20260503200703 15 315 4.8 4.8 0.00 0.00 0.00 69 1010.0
20260503200603 14 314 4.8 4.8 0.00 0.00 0.00 70 1010.0
20260503200503 14 309 4.8 6.4 0.00 0.00 0.00 70 1010.1
20260503200403 14 307 4.8 6.4 0.00 0.00 0.00 70 1010.1
20260503200304 14 306 4.8 6.4 0.00 0.00 0.00 70 1010.0
20260503200204 14 305 3.2 6.4 0.00 0.00 0.00 70 1010.0
20260503200104 14 304 3.2 6.4 0.00 0.00 0.00 70 1010.0
20260503200004 14 301 3.2 6.4 0.00 0.00 0.00 70 1010.0
20260503195904 14 298 1.6 6.4 0.00 0.00 0.00 70 1010.1
20260503195804 14 292 1.6 6.4 0.00 0.00 0.00 70 1010.1
20260503195704 14 282 1.6 6.4 0.00 0.00 0.00 71 1010.0
20260503195604 14 270 0.0 6.4 0.00 0.00 0.00 71 1010.0
20260503195504 14 270 0.0 6.4 0.00 0.00 0.00 71 1009.9
20260503195404 14 0 0.0 0.0 0.00 0.00 0.00 71 1009.9
20260503195304 13 0 0.0 0.0 0.00 0.00 0.00 71 1010.0
20260503195203 13 0 0.0 0.0 0.00 0.00 0.00 71 1010.0
20260503195103 13 0 0.0 0.0 0.00 0.00 0.00 71 1010.0
20260503195003 13 0 0.0 0.0 0.00 0.00 0.00 71 1010.1
20260503194903 13 0 0.0 0.0 0.00 0.00 0.00 71 1009.9
20260503194803 13 0 0.0 0.0 0.00 0.00 0.00 71 1009.8
20260503194703 13 0 0.0 0.0 0.00 0.00 0.00 71 1010.0
20260503194603 13 0 0.0 0.0 0.00 0.00 0.00 71 1009.9
20260503194503 13 0 0.0 0.0 0.00 0.00 0.00 71 1010.0
20260503194404 13 0 0.0 0.0 0.00 0.00 0.00 71 1009.8
20260503194304 13 0 0.0 0.0 0.00 0.00 0.00 71 1009.8
20260503194204 13 0 0.0 0.0 0.00 0.00 0.00 71 1010.0
20260503194104 13 0 0.0 0.0 0.00 0.00 0.00 71 1009.8
20260503194004 13 0 0.0 0.0 0.00 0.00 0.00 71 1009.9
20260503193905 13 0 0.0 0.0 0.00 0.00 0.00 71 1009.8
20260503193804 13 0 0.0 0.0 0.00 0.00 0.00 71 1009.8
20260503193704 13 0 0.0 0.0 0.00 0.00 0.00 71 1009.9
20260503193604 13 0 0.0 0.0 0.00 0.00 0.00 71 1009.8
20260503193503 13 0 0.0 0.0 0.00 0.00 0.00 71 1009.8
20260503193403 13 0 0.0 0.0 0.00 0.00 0.00 71 1009.8
20260503193304 13 0 0.0 0.0 0.00 0.00 0.00 71 1009.8
20260503193203 13 0 0.0 0.0 0.00 0.00 0.00 71 1009.8
20260503193103 13 0 0.0 0.0 0.00 0.00 0.00 71 1009.8
20260503193003 13 0 0.0 0.0 0.00 0.00 0.00 71 1009.9
20260503192903 13 0 0.0 0.0 0.00 0.00 0.00 70 1009.9
20260503192803 13 0 0.0 0.0 0.00 0.00 0.00 70 1009.8
20260503192705 13 0 0.0 0.0 0.00 0.00 0.00 70 1009.9
20260503192603 13 0 0.0 0.0 0.00 0.00 0.00 70 1009.9
20260503192503 13 0 0.0 0.0 0.00 0.00 0.00 70 1010.0
20260503192404 13 0 0.0 0.0 0.00 0.00 0.00 70 1009.9
20260503192305 13 0 0.0 0.0 0.00 0.00 0.00 70 1010.0
20260503192204 13 0 0.0 0.0 0.00 0.00 0.00 70 1009.9
20260503192104 13 0 0.0 0.0 0.00 0.00 0.00 70 1009.8
20260503191703 13 0 0.0 0.0 0.00 0.00 0.00 70 1009.9
20260503191604 13 0 0.0 0.0 0.00 0.00 0.00 70 1009.8
20260503191503 13 0 0.0 0.0 0.00 0.00 0.00 70 1009.8
20260503191403 13 0 0.0 0.0 0.00 0.00 0.00 70 1009.8
20260503191305 13 0 0.0 0.0 0.00 0.00 0.00 70 1009.8
20260503191203 13 0 0.0 0.0 0.00 0.00 0.00 70 1009.8
20260503191103 13 0 0.0 0.0 0.00 0.00 0.00 70 1009.8
20260503191003 13 0 0.0 0.0 0.00 0.00 0.00 70 1010.0
20260503190904 13 0 0.0 0.0 0.00 0.00 0.00 70 1009.7
20260503190804 13 0 0.0 0.0 0.00 0.00 0.00 70 1009.8
20260503190704 13 0 0.0 0.0 0.00 0.00 0.00 70 1009.7
20260503190604 13 0 0.0 0.0 0.00 0.00 0.00 70 1009.6
20260503190504 13 0 0.0 0.0 0.00 0.00 0.00 69 1009.6
20260503190404 13 0 0.0 0.0 0.00 0.00 0.00 69 1009.7
20260503190304 13 0 0.0 0.0 0.00 0.00 0.00 69 1009.6
20260503190204 13 0 0.0 0.0 0.00 0.00 0.00 69 1009.5
20260503190104 13 0 0.0 0.0 0.00 0.00 0.00 69 1009.5
20260503190004 13 0 0.0 0.0 0.00 0.00 0.00 69 1009.6
20260503185904 13 0 0.0 0.0 0.00 0.00 0.00 69 1009.5
20260503185804 13 0 0.0 0.0 0.00 0.00 0.00 69 1009.7
20260503185704 13 0 0.0 0.0 0.00 0.00 0.00 68 1009.6
20260503185604 13 0 0.0 0.0 0.00 0.00 0.00 68 1009.4
20260503185503 13 0 0.0 0.0 0.00 0.00 0.00 68 1009.5
20260503185403 13 0 0.0 0.0 0.00 0.00 0.00 68 1009.4
20260503185304 13 0 0.0 0.0 0.00 0.00 0.00 68 1009.4
20260503185203 13 0 0.0 0.0 0.00 0.00 0.00 68 1009.4
20260503185103 13 0 0.0 0.0 0.00 0.00 0.00 68 1009.4
20260503185003 13 0 0.0 0.0 0.00 0.00 0.00 67 1009.4
20260503184903 13 0 0.0 0.0 0.00 0.00 0.00 67 1009.5
20260503184803 13 0 0.0 0.0 0.00 0.00 0.00 67 1009.4
20260503184704 13 0 0.0 0.0 0.00 0.00 0.00 67 1009.3
20260503184604 13 0 0.0 0.0 0.00 0.00 0.00 67 1009.3
20260503184504 13 0 0.0 0.0 0.00 0.00 0.00 67 1009.4
20260503184404 13 0 0.0 0.0 0.00 0.00 0.00 67 1009.4
20260503184304 13 0 0.0 0.0 0.00 0.00 0.00 67 1009.3
20260503184204 14 0 0.0 0.0 0.00 0.00 0.00 66 1009.3
20260503184104 14 0 0.0 0.0 0.00 0.00 0.00 66 1009.3
20260503184004 14 0 0.0 0.0 0.00 0.00 0.00 66 1009.3
20260503183904 14 0 0.0 0.0 0.00 0.00 0.00 66 1009.4
20260503183804 14 0 0.0 0.0 0.00 0.00 0.00 66 1009.2
20260503183703 14 0 0.0 0.0 0.00 0.00 0.00 66 1009.2
20260503183604 14 0 0.0 0.0 0.00 0.00 0.00 66 1009.3
20260503183503 14 0 0.0 0.0 0.00 0.00 0.00 66 1009.3
20260503183403 14 0 0.0 0.0 0.00 0.00 0.00 65 1009.2
20260503183303 14 0 0.0 0.0 0.00 0.00 0.00 65 1009.3
20260503183203 14 0 0.0 0.0 0.00 0.00 0.00 65 1009.3
20260503183103 14 0 0.0 0.0 0.00 0.00 0.00 65 1009.2
20260503183003 14 0 0.0 0.0 0.00 0.00 0.00 65 1009.2
20260503182903 14 0 0.0 0.0 0.00 0.00 0.00 65 1009.3
20260503182803 15 0 0.0 0.0 0.00 0.00 0.00 65 1009.4
20260503182704 15 0 0.0 0.0 0.00 0.00 0.00 65 1009.4
20260503182604 15 0 0.0 0.0 0.00 0.00 0.00 65 1009.4
20260503182504 15 0 0.0 0.0 0.00 0.00 0.00 64 1009.4
20260503182404 15 0 0.0 0.0 0.00 0.00 0.00 64 1009.4
20260503182305 15 0 0.0 0.0 0.00 0.00 0.00 64 1009.4
20260503182204 15 0 0.0 0.0 0.00 0.00 0.00 64 1009.4
20260503182104 15 0 0.0 0.0 0.00 0.00 0.00 64 1009.4
20260503181704 15 0 0.0 0.0 0.00 0.00 0.00 63 1009.3
20260503181604 15 0 0.0 0.0 0.00 0.00 0.00 63 1009.3
20260503181505 15 0 0.0 0.0 0.00 0.00 0.00 63 1009.4
20260503181404 15 0 0.0 0.0 0.00 0.00 0.00 63 1009.4
20260503181304 15 0 0.0 0.0 0.00 0.00 0.00 62 1009.3
20260503181204 15 0 0.0 0.0 0.00 0.00 0.00 62 1009.3
20260503181104 15 0 0.0 0.0 0.00 0.00 0.00 62 1009.4
20260503181004 15 0 0.0 0.0 0.00 0.00 0.00 62 1009.3
20260503180904 15 0 0.0 0.0 0.00 0.00 0.00 62 1009.2
20260503180803 15 0 0.0 0.0 0.00 0.00 0.00 62 1009.2
20260503180703 15 0 0.0 0.0 0.00 0.00 0.00 62 1009.3
20260503180604 15 0 0.0 0.0 0.00 0.00 0.00 61 1009.3
20260503180503 15 0 0.0 0.0 0.00 0.00 0.00 61 1009.3
20260503180403 15 0 0.0 0.0 0.00 0.00 0.00 61 1009.3
20260503180303 15 0 0.0 0.0 0.00 0.00 0.00 61 1009.4
20260503180203 16 0 0.0 0.0 0.00 0.00 0.00 61 1009.3
20260503180103 16 0 0.0 0.0 0.00 0.00 0.00 61 1009.3
20260503180003 16 0 0.0 0.0 0.00 0.00 0.00 61 1009.3
20260503175903 16 0 0.0 0.0 0.00 0.00 0.00 61 1009.3
20260503175804 16 0 0.0 0.0 0.00 0.00 0.00 60 1009.3
20260503175704 16 0 0.0 0.0 0.00 0.00 0.00 60 1009.1
20260503175604 16 0 0.0 0.0 0.00 0.00 0.00 60 1009.3
20260503175504 16 0 0.0 0.0 0.00 0.00 0.00 60 1009.3
20260503175404 16 0 0.0 0.0 0.00 0.00 0.00 60 1009.2
20260503175305 16 0 0.0 0.0 0.00 0.00 0.00 60 1009.3
20260503175204 16 0 0.0 0.0 0.00 0.00 0.00 60 1009.2
20260503175104 16 0 0.0 0.0 0.00 0.00 0.00 60 1009.3
20260503175004 16 0 0.0 0.0 0.00 0.00 0.00 60 1009.3
20260503174904 16 0 0.0 0.0 0.00 0.00 0.00 59 1009.3
20260503174803 16 0 0.0 0.0 0.00 0.00 0.00 59 1009.2
20260503174704 16 0 0.0 0.0 0.00 0.00 0.00 59 1009.2
20260503174604 16 0 0.0 0.0 0.00 0.00 0.00 59 1009.2
20260503174503 16 0 0.0 0.0 0.00 0.00 0.00 59 1009.2
20260503174403 16 0 0.0 0.0 0.00 0.00 0.00 59 1009.2
20260503174303 16 0 0.0 0.0 0.00 0.00 0.00 59 1009.3
20260503174203 16 0 0.0 0.0 0.00 0.00 0.00 58 1009.2
20260503174103 16 0 0.0 0.0 0.00 0.00 0.00 58 1009.2
20260503174003 16 225 0.0 1.6 0.00 0.00 0.00 58 1009.3
20260503173903 16 225 0.0 1.6 0.00 0.00 0.00 58 1009.4
20260503173804 16 215 0.0 1.6 0.00 0.00 0.00 58 1009.3
20260503173704 16 209 0.0 1.6 0.00 0.00 0.00 58 1009.3
20260503173604 16 212 0.0 1.6 0.00 0.00 0.00 58 1009.4
20260503173504 16 206 0.0 1.6 0.00 0.00 0.00 58 1009.5
20260503173404 16 206 0.0 1.6 0.00 0.00 0.00 57 1009.4
20260503173304 16 198 0.0 1.6 0.00 0.00 0.00 57 1009.3
20260503173204 16 218 1.6 3.2 0.00 0.00 0.00 57 1009.5
20260503173104 16 215 1.6 3.2 0.00 0.00 0.00 57 1009.4
20260503173004 17 209 1.6 3.2 0.00 0.00 0.00 56 1009.6
20260503172904 17 207 1.6 3.2 0.00 0.00 0.00 56 1009.4
20260503172804 17 211 1.6 3.2 0.00 0.00 0.00 56 1009.4
20260503172704 17 214 1.6 3.2 0.00 0.00 0.00 56 1009.4
20260503172604 17 212 1.6 3.2 0.00 0.00 0.00 56 1009.4
20260503172504 17 221 1.6 3.2 0.00 0.00 0.00 56 1009.5
20260503172403 17 221 1.6 3.2 0.00 0.00 0.00 56 1009.5
20260503172305 17 231 1.6 3.2 0.00 0.00 0.00 56 1009.5
20260503172203 17 197 1.6 3.2 0.00 0.00 0.00 55 1009.5
20260503172103 17 220 1.6 4.8 0.00 0.00 0.00 55 1009.6
20260503171703 17 269 1.6 4.8 0.00 0.00 0.00 51 1009.5
20260503171603 17 269 1.6 4.8 0.00 0.00 0.00 51 1009.6
20260503171503 17 269 1.6 4.8 0.00 0.00 0.00 51 1009.6
20260503171403 17 269 1.6 4.8 0.00 0.00 0.00 51 1009.5
20260503171303 17 260 3.2 6.4 0.00 0.00 0.00 51 1009.5
20260503171203 17 255 3.2 6.4 0.00 0.00 0.00 51 1009.6
20260503171103 17 250 3.2 6.4 0.00 0.00 0.00 50 1009.6
20260503171003 17 248 3.2 8.0 0.00 0.00 0.00 50 1009.6
20260503170903 17 268 3.2 8.0 0.00 0.00 0.00 50 1009.6
20260503170803 17 286 3.2 8.0 0.00 0.00 0.00 50 1009.5
20260503170703 17 286 3.2 8.0 0.00 0.00 0.00 50 1009.6
20260503170603 17 286 3.2 8.0 0.00 0.00 0.00 50 1009.8
20260503170504 18 286 3.2 8.0 0.00 0.00 0.00 49 1009.7
20260503170404 18 283 3.2 8.0 0.00 0.00 0.00 49 1009.5
20260503170304 18 293 3.2 8.0 0.00 0.00 0.00 49 1009.7
20260503170204 18 309 3.2 8.0 0.00 0.00 0.00 48 1009.6
20260503170104 18 306 3.2 8.0 0.00 0.00 0.00 48 1009.6
20260503160204 20 289 6.4 11.3 0.00 0.00 0.00 43 1009.7
20260503160105 20 291 6.4 11.3 0.00 0.00 0.00 43 1009.6
20260503151003 21 75 6.4 9.7 0.00 0.00 0.00 41 1009.5
20260503150903 21 70 6.4 9.7 0.00 0.00 0.00 41 1009.3
20260503150803 21 63 6.4 9.7 0.00 0.00 0.00 41 1009.5
20260503150703 21 57 6.4 9.7 0.00 0.00 0.00 41 1009.4
20260503150603 20 65 6.4 9.7 0.00 0.00 0.00 42 1009.5
20260503150503 20 66 6.4 6.4 0.00 0.00 0.00 42 1009.4
20260503150403 20 28 6.4 6.4 0.00 0.00 0.00 42 1009.4
20260503150304 20 337 6.4 9.7 0.00 0.00 0.00 42 1009.4
20260503150204 20 312 6.4 9.7 0.00 0.00 0.00 42 1009.5
20260503150104 20 289 6.4 9.7 0.00 0.00 0.00 42 1009.5
20260503140304 22 152 0.0 6.4 0.00 0.00 0.00 30 1009.6
20260503140204 22 137 1.6 6.4 0.00 0.00 0.00 30 1009.7
20260503140104 22 139 1.6 6.4 0.00 0.00 0.00 30 1009.6
20260503131406 23 272 3.2 8.0 0.00 0.00 0.00 36 1010.3
20260503131304 23 272 3.2 8.0 0.00 0.00 0.00 35 1010.2
20260503131204 23 261 1.6 8.0 0.00 0.00 0.00 35 1010.3
20260503131104 23 153 1.6 8.0 0.00 0.00 0.00 35 1010.3
20260503131004 23 270 0.0 3.2 0.00 0.00 0.00 35 1010.4
20260503130904 23 270 0.0 3.2 0.00 0.00 0.00 35 1010.4
20260503130804 23 270 0.0 3.2 0.00 0.00 0.00 35 1010.4
20260503130703 23 270 0.0 3.2 0.00 0.00 0.00 35 1010.4
20260503130603 23 270 0.0 3.2 0.00 0.00 0.00 36 1010.5
20260503130503 23 0 0.0 0.0 0.00 0.00 0.00 36 1010.6
20260503130404 23 270 0.0 1.6 0.00 0.00 0.00 36 1010.5
20260503130303 23 310 0.0 1.6 0.00 0.00 0.00 36 1010.4
20260503130204 23 311 0.0 1.6 0.00 0.00 0.00 36 1010.4
20260503130103 23 271 0.0 3.2 0.00 0.00 0.00 36 1010.4
20260503120204 23 116 1.6 6.4 0.00 0.00 0.00 38 1010.8
20260503120103 23 117 1.6 6.4 0.00 0.00 0.00 38 1010.9
20260503110803 22 153 4.8 9.7 0.00 0.00 0.00 40 1011.2
20260503110703 22 151 4.8 9.7 0.00 0.00 0.00 40 1011.2
20260503110603 22 148 4.8 9.7 0.00 0.00 0.00 40 1011.2
20260503110503 22 152 4.8 9.7 0.00 0.00 0.00 40 1011.2
20260503110404 21 152 6.4 9.7 0.00 0.00 0.00 40 1011.3
20260503110304 21 144 6.4 9.7 0.00 0.00 0.00 41 1011.3
20260503110204 22 145 6.4 9.7 0.00 0.00 0.00 40 1011.2
20260503110104 22 148 6.4 9.7 0.00 0.00 0.00 40 1011.2
20260503100204 22 175 8.0 12.9 0.00 0.00 0.00 41 1011.9
20260503100104 22 153 8.0 12.9 0.00 0.00 0.00 41 1011.8
20260503090503 22 225 0.0 1.6 0.00 0.00 0.00 25 1012.1
20260503090403 22 225 0.0 1.6 0.00 0.00 0.00 25 1012.1
20260503090303 22 225 0.0 1.6 0.00 0.00 0.00 25 1012.1
20260503090203 22 225 0.0 1.6 0.00 0.00 0.00 25 1011.9
20260503081603 21 150 3.2 6.4 0.00 0.00 0.00 32 1011.4
20260503081503 21 152 3.2 6.4 0.00 0.00 0.00 32 1011.5
20260503081403 22 163 3.2 6.4 0.00 0.00 0.00 33 1011.2
20260503081303 21 169 1.6 6.4 0.00 0.00 0.00 34 1011.4
20260503081203 21 169 1.6 6.4 0.00 0.00 0.00 34 1011.4
20260503081103 21 169 1.6 6.4 0.00 0.00 0.00 34 1011.3
20260503081003 21 168 1.6 6.4 0.00 0.00 0.00 33 1011.3
20260503080903 21 164 1.6 6.4 0.00 0.00 0.00 33 1011.3
20260503080803 21 167 1.6 6.4 0.00 0.00 0.00 33 1011.3
20260503080703 21 169 1.6 6.4 0.00 0.00 0.00 32 1011.4
20260503080604 21 182 1.6 6.4 0.00 0.00 0.00 33 1011.2
20260503080504 21 185 1.6 4.8 0.00 0.00 0.00 33 1011.2
20260503080404 21 184 1.6 4.8 0.00 0.00 0.00 33 1011.5
20260503080304 21 179 1.6 6.4 0.00 0.00 0.00 33 1011.3
20260503080204 21 174 3.2 6.4 0.00 0.00 0.00 33 1011.3
20260503080104 21 175 3.2 6.4 0.00 0.00 0.00 33 1011.3
20260503072903 20 184 4.8 9.7 0.00 0.00 0.00 40 1011.3
20260503072803 20 183 4.8 9.7 0.00 0.00 0.00 40 1011.4
20260503072703 20 175 3.2 9.7 0.00 0.00 0.00 40 1011.4
20260503072603 19 175 3.2 9.7 0.00 0.00 0.00 40 1011.4
20260503072503 19 176 4.8 9.7 0.00 0.00 0.00 41 1011.5
20260503072404 19 168 3.2 9.7 0.00 0.00 0.00 41 1011.4
20260503072305 19 167 4.8 6.4 0.00 0.00 0.00 41 1011.4
20260503072204 19 165 4.8 6.4 0.00 0.00 0.00 42 1011.4
20260503072104 19 174 4.8 6.4 0.00 0.00 0.00 42 1011.3
20260503072004 19 196 3.2 6.4 0.00 0.00 0.00 42 1011.4
20260503071703 19 195 1.6 6.4 0.00 0.00 0.00 44 1011.6
20260503071603 19 195 1.6 6.4 0.00 0.00 0.00 44 1011.5
20260503071503 19 192 1.6 6.4 0.00 0.00 0.00 44 1011.4
20260503071403 19 210 1.6 4.8 0.00 0.00 0.00 45 1011.5
20260503071303 19 212 1.6 4.8 0.00 0.00 0.00 45 1011.5
20260503071203 19 202 1.6 3.2 0.00 0.00 0.00 45 1011.4
20260503071103 19 202 1.6 3.2 0.00 0.00 0.00 45 1011.6
20260503071004 19 202 1.6 3.2 0.00 0.00 0.00 45 1011.5
20260503070904 19 200 1.6 3.2 0.00 0.00 0.00 45 1011.6
20260503070804 19 198 3.2 3.2 0.00 0.00 0.00 45 1011.5
20260503070704 19 194 3.2 6.4 0.00 0.00 0.00 49 1011.6
20260503070604 19 191 3.2 6.4 0.00 0.00 0.00 49 1011.5
20260503070504 19 189 3.2 6.4 0.00 0.00 0.00 49 1011.5
20260503070404 19 180 3.2 6.4 0.00 0.00 0.00 49 1011.6
20260503070304 19 175 3.2 6.4 0.00 0.00 0.00 49 1011.6
20260503070204 19 174 3.2 6.4 0.00 0.00 0.00 49 1011.5
20260503070104 19 175 3.2 6.4 0.00 0.00 0.00 49 1011.4